Theta_e
315 310 307 305 296 293 290 293 298 300 299 302 307 306 306 310 306 297 325 333 339 337 342 344 347 347 343 343 344 345 345 344 342 340 339 339 339 341 344 346 347 347 344 343 343 343 343 341 340
310 312 307 298 292 288 289 293 298 300 306 310 307 309 309 306 317 323 325 338 337 338 341 342 345 346 343 343 345 345 345 345 342 339 338 338 339 339 340 342 345 346 343 343 341 341 340 339 338
312 309 302 295 289 289 289 294 298 301 304 302 305 310 311 311 319 324 331 338 337 337 340 340 345 347 344 343 345 344 344 344 342 339 338 338 338 337 337 338 340 343 343 342 341 340 338 337 336
306 306 302 293 291 294 293 298 301 300 300 305 308 307 313 320 323 328 337 336 335 336 338 341 345 347 345 345 345 344 343 342 341 340 341 339 339 340 340 340 339 338 340 340 339 337 337 337 336
303 301 295 290 292 294 293 302 300 300 298 300 305 304 311 320 329 336 335 335 332 332 336 340 344 346 345 345 344 343 342 341 340 341 340 340 341 338 339 340 339 337 337 337 336 335 336 336 335
299 298 292 291 292 294 297 300 299 297 298 304 309 307 311 323 332 334 335 332 333 332 335 338 337 341 343 343 343 343 342 341 341 340 339 338 339 339 337 338 337 336 336 336 335 334 334 333 333
297 295 292 289 292 294 298 300 297 298 298 299 312 308 310 318 329 333 332 332 332 333 333 335 336 337 337 339 340 341 341 340 341 340 339 337 337 340 338 337 336 333 334 335 333 331 331 331 330
298 295 289 289 291 293 296 299 298 298 296 303 314 308 309 318 331 332 331 330 330 330 331 331 332 334 335 336 333 335 337 338 338 335 332 330 330 330 331 332 335 333 332 333 331 330 329 329 329
300 292 288 292 292 293 296 296 297 298 299 301 305 314 317 325 332 330 329 329 329 329 329 329 330 331 331 333 330 330 332 332 331 328 325 322 321 321 322 328 333 334 333 331 329 328 327 323 324
295 291 292 295 295 295 297 297 298 298 299 303 309 316 321 329 330 328 326 326 326 326 327 328 328 329 329 334 331 331 331 328 326 324 322 321 321 320 320 322 327 330 330 330 328 327 323 320 315
295 294 295 295 297 298 297 296 296 297 294 303 308 315 319 326 328 326 327 328 326 326 327 328 328 328 328 329 328 334 333 326 324 322 321 321 320 318 317 316 316 316 317 317 317 316 316 315 315
292 297 295 297 299 297 296 297 294 296 297 300 312 320 319 322 325 325 326 327 325 325 326 327 327 327 327 328 327 330 332 326 323 322 322 320 318 316 315 315 314 314 314 313 313 313 314 314 315
294 294 295 296 297 296 298 295 295 295 296 307 317 319 318 320 322 325 326 327 326 325 326 327 327 327 327 326 326 327 330 330 325 323 323 321 318 316 315 314 313 312 312 312 312 312 313 312 313
296 294 294 294 295 295 296 293 295 296 299 313 317 317 318 319 321 319 322 325 325 327 327 329 328 328 328 326 326 326 328 330 326 325 324 323 320 316 315 314 313 312 312 312 311 312 311 311 312
295 291 291 292 294 293 294 292 294 295 300 312 314 315 316 318 320 321 324 325 327 328 328 328 329 329 328 327 326 326 326 328 328 327 326 328 324 318 316 314 313 313 313 312 310 310 310 310 310
292 289 286 290 293 293 293 290 294 295 299 306 311 312 314 317 320 322 323 325 327 328 325 327 330 329 330 329 329 328 327 326 328 329 331 328 326 322 317 315 314 314 313 311 309 309 308 308 308
287 283 286 287 291 291 291 290 292 293 296 298 303 307 312 314 316 318 322 325 326 326 326 326 326 327 330 330 330 330 330 329 329 331 330 329 327 324 321 317 316 314 313 310 309 308 308 306 306
283 284 285 286 291 290 289 290 291 291 293 295 297 300 301 304 311 317 319 322 325 326 326 327 327 327 327 330 331 330 329 329 330 330 330 330 329 326 323 320 316 314 311 309 307 308 306 306 306
287 286 286 285 290 290 288 289 290 291 289 291 292 292 293 295 302 300 310 318 320 323 325 326 326 326 327 327 327 329 328 329 328 328 328 329 329 327 324 321 318 315 312 310 309 310 308 304 304
285 284 284 287 290 288 286 288 290 290 291 292 292 290 292 293 294 295 295 301 314 320 325 325 326 327 327 328 328 327 329 329 330 330 327 328 328 327 325 322 319 316 314 311 310 308 303 304 304
283 283 283 286 287 286 284 285 286 290 290 291 292 293 294 295 295 294 294 295 303 314 322 325 326 327 328 328 326 323 327 327 327 327 327 326 327 326 325 323 321 318 316 314 312 309 307 307 305
283 287 287 286 284 280 283 279 283 285 288 289 292 294 294 296 294 294 294 293 297 308 316 324 326 326 327 327 325 324 324 322 325 325 324 325 326 326 325 324 322 320 317 316 314 312 311 308 306
285 288 287 284 282 280 279 278 281 282 286 289 291 292 293 294 293 294 294 293 294 300 305 313 319 322 324 324 325 324 323 324 320 320 321 323 321 323 325 324 322 321 318 317 315 310 310 310 307
288 286 285 283 282 277 279 280 279 282 287 288 287 289 291 291 291 294 298 300 300 301 301 302 303 308 315 322 324 323 323 322 318 319 321 323 325 325 324 324 324 322 320 318 316 314 312 311 310
285 282 276 276 275 276 278 277 282 285 287 287 287 289 289 291 293 296 297 299 300 300 303 303 303 302 302 301 313 325 324 324 320 321 322 323 323 321 323 323 322 322 321 319 316 314 312 310 310
283 283 277 272 272 276 279 278 282 287 288 288 287 288 292 292 294 294 296 297 298 299 302 302 302 302 303 302 299 301 322 325 324 324 323 322 322 322 323 322 322 322 320 317 315 314 313 311 310
284 281 284 278 269 274 278 280 286 287 287 287 287 289 291 292 293 294 294 296 297 298 299 301 301 302 302 303 304 300 303 319 321 320 318 320 319 319 318 317 318 318 317 316 314 313 311 308 307
286 288 282 279 271 271 276 277 280 284 286 287 287 289 289 291 293 294 294 295 295 294 296 300 300 301 301 301 306 308 310 313 315 315 315 315 314 312 315 314 314 313 313 313 312 309 307 306 304
283 282 281 282 280 274 272 277 283 285 285 286 287 288 289 291 292 293 293 294 294 294 295 296 298 299 299 300 304 306 305 306 307 307 306 305 306 307 308 308 307 306 306 306 305 304 303 302 301
285 285 285 282 276 276 277 279 285 286 286 287 287 287 286 290 292 293 293 292 292 292 293 294 294 295 295 295 296 298 300 300 300 300 300 301 301 300 300 301 300 299 299 300 299 298 298 297 296
Wind_Speed
6 5 3 6 6 6 1 2 2 4 2 2 4 5 8 3 3 4 3 5 10 8 5 6 10 13 14 12 11 11 10 16 16 15 15 15 14 13 16 16 16 17 18 18 18 19 19 18 18
4 3 5 3 6 4 4 4 5 2 7 8 7 4 6 2 2 4 4 6 10 9 5 6 9 12 14 13 13 12 15 15 16 15 15 15 15 14 13 16 15 16 18 17 17 17 17 17 17
1 4 5 6 4 4 4 3 3 1 5 2 5 5 4 3 2 7 4 9 9 7 6 6 10 12 12 13 13 13 13 13 14 15 16 15 15 15 14 13 13 14 16 17 17 17 16 15 16
4 5 5 5 3 4 5 5 5 6 3 4 4 7 2 3 7 6 10 9 9 7 6 8 9 12 12 12 12 13 13 14 13 13 11 16 13 16 13 12 13 13 14 17 16 15 15 15 15
5 3 4 2 3 3 2 6 4 5 3 3 2 3 3 2 6 13 11 8 9 6 6 6 9 13 12 12 12 12 12 14 13 12 14 14 15 15 14 15 17 13 13 14 15 15 14 15 15
4 4 4 3 4 3 2 3 4 2 2 4 6 4 4 3 12 10 10 8 6 8 5 5 6 9 12 11 11 12 11 12 11 12 13 12 12 13 14 14 14 12 12 13 13 15 16 15 14
6 4 5 4 4 1 4 6 5 6 6 3 10 6 1 4 6 9 9 8 7 6 6 5 5 6 9 10 11 10 10 10 10 10 10 10 11 13 13 12 12 10 11 11 12 13 14 13 12
6 5 5 3 5 5 4 5 3 5 2 3 3 7 5 6 8 8 8 8 7 6 6 5 5 5 5 6 9 10 10 10 10 9 8 8 9 10 9 10 11 10 9 9 10 12 13 12 10
3 5 3 7 7 5 4 4 3 2 6 1 1 6 4 17 13 10 8 5 5 4 5 5 5 5 5 5 6 8 9 9 8 7 7 6 4 5 7 7 11 10 8 7 8 10 11 9 9
5 4 8 5 5 7 8 6 8 4 3 0 1 4 13 17 16 17 14 11 11 10 6 6 6 6 5 4 6 5 5 4 4 5 5 4 4 3 5 6 8 8 7 6 6 7 8 6 4
3 4 4 3 4 5 8 6 4 9 4 6 9 10 13 16 15 16 16 15 14 9 6 7 7 6 6 5 4 3 4 3 3 5 4 4 3 3 3 3 3 3 5 3 4 5 4 5 3
2 5 2 3 3 5 9 8 5 6 7 6 10 18 14 14 16 15 15 14 10 9 10 8 7 6 5 4 4 6 5 3 4 4 6 4 3 3 3 2 2 3 1 2 2 1 2 4 3
3 2 2 1 2 3 7 4 6 7 1 6 10 8 15 14 13 10 10 10 10 11 9 10 8 8 6 5 4 4 6 5 4 5 5 4 4 4 3 3 2 2 1 1 1 0 0 1 2
6 2 2 2 2 2 5 3 5 5 3 7 12 11 9 13 14 6 8 11 12 12 11 11 10 8 7 6 6 5 5 7 4 4 5 6 5 4 4 3 4 3 3 2 2 3 2 2 1
7 4 2 0 1 2 1 2 6 1 5 9 9 8 8 9 8 15 15 13 14 12 10 12 13 11 9 8 6 5 5 5 5 4 5 7 6 6 5 4 4 4 4 4 2 2 1 1 1
7 5 4 3 4 1 4 9 4 5 10 10 9 7 8 10 12 10 9 11 11 11 12 11 11 12 12 10 8 6 6 5 6 6 7 8 7 8 6 4 4 4 3 3 3 3 2 2 2
5 5 3 2 1 2 3 7 4 4 7 9 9 9 9 7 9 9 9 11 11 12 11 10 8 9 11 9 7 7 8 8 8 7 7 8 8 7 6 5 4 5 4 4 3 3 2 2 2
4 6 4 4 4 0 3 7 3 2 6 10 9 8 7 8 16 13 11 9 9 10 10 12 10 11 9 7 6 4 5 6 6 7 7 8 7 9 7 5 5 5 3 3 2 4 2 2 3
6 6 6 3 0 3 6 6 8 4 4 8 9 9 9 13 15 8 9 11 8 7 9 11 11 11 9 7 8 8 8 6 6 6 8 8 7 8 8 5 4 4 5 5 5 3 4 3 2
3 5 5 2 2 3 1 11 9 6 7 9 11 9 12 8 9 9 10 9 11 13 13 13 13 12 11 9 8 8 7 5 5 6 7 9 8 8 8 7 7 8 5 5 5 4 2 3 4
4 6 5 5 4 2 3 8 5 7 5 6 8 10 9 16 15 10 8 10 7 11 14 14 14 14 13 13 5 2 4 2 3 4 5 6 8 9 9 9 7 8 7 8 8 7 7 4 3
5 5 6 8 6 4 2 7 6 5 9 6 11 13 16 14 9 7 6 7 9 10 6 10 11 12 11 11 8 11 10 11 8 7 4 6 10 10 9 10 9 8 7 8 8 6 7 4 5
6 5 6 4 5 5 1 1 8 1 7 10 14 14 11 9 8 9 8 6 4 6 7 6 6 7 8 9 11 9 10 7 3 3 7 8 6 8 10 11 11 9 8 9 8 6 8 7 4
10 7 7 5 3 2 7 7 7 5 9 8 3 3 7 7 7 4 5 5 4 3 2 3 5 6 5 7 11 11 12 9 6 6 7 7 7 7 9 10 10 11 10 10 10 10 9 9 8
3 7 3 2 2 5 2 2 9 9 10 6 5 7 2 3 5 6 7 5 4 3 3 3 3 4 3 4 5 11 12 11 11 10 8 8 7 5 9 11 10 9 10 9 7 7 8 7 7
6 9 8 7 4 4 1 9 9 6 7 7 5 1 4 4 3 5 5 4 3 4 4 4 3 3 4 5 7 7 9 8 8 9 7 6 7 7 7 8 8 9 6 6 6 5 5 7 7
7 6 8 9 2 3 6 7 12 5 7 2 5 4 5 4 3 4 3 2 2 3 4 3 2 1 2 2 4 6 6 9 13 6 4 4 4 4 4 5 5 4 6 6 6 5 6 4 4
9 11 5 2 5 4 5 6 7 4 5 5 5 5 6 4 5 2 2 1 1 1 2 3 2 1 0 1 0 1 3 3 4 4 4 3 0 1 2 2 2 3 3 3 4 3 3 4 2
5 5 4 7 6 7 1 7 7 5 2 2 7 8 7 7 6 5 4 4 2 1 1 1 1 2 3 3 2 3 3 3 4 4 4 4 4 5 5 5 6 5 6 5 5 5 4 6 4
2 7 6 7 6 1 3 8 2 4 2 6 6 4 4 5 5 5 5 4 4 3 1 0 2 3 3 2 3 3 3 4 5 5 5 5 6 6 6 6 8 6 6 7 6 6 5 6 5
Wind_Direction
337 340 63 43 53 64 346 260 306 130 74 294 90 134 144 77 144 210 337 135 131 130 139 134 131 121 117 113 105 95 98 99 89 90 89 86 85 90 79 85 96 90 88 83 82 84 84 82 79
336 5 42 81 83 69 276 274 176 198 145 145 97 98 61 89 98 116 114 151 132 130 129 126 134 128 124 120 107 97 91 98 101 90 88 92 91 88 90 74 76 95 95 90 87 87 86 86 83
37 45 77 91 109 161 205 211 191 61 157 198 98 58 120 154 27 160 153 137 123 117 126 127 134 133 128 124 116 109 99 94 91 93 97 93 95 91 92 89 85 83 98 92 86 85 87 87 85
40 12 41 85 200 245 190 191 177 146 189 52 113 68 30 247 151 168 136 130 122 128 130 139 144 139 131 123 116 114 110 105 103 106 110 114 111 105 94 106 100 76 80 92 86 83 84 87 83
37 49 67 74 266 257 238 170 179 133 107 87 90 148 54 19 112 134 135 135 133 131 137 143 150 143 137 132 123 119 118 117 114 104 98 97 99 98 87 78 90 95 91 92 86 78 83 83 83
46 97 77 205 258 305 134 146 169 124 140 153 77 95 143 132 133 148 140 135 129 137 137 132 137 143 141 138 130 124 122 119 116 108 108 104 97 103 100 91 90 95 96 90 80 77 80 77 82
117 102 195 174 214 328 169 143 164 165 138 195 147 123 182 179 162 140 133 126 127 134 132 134 142 146 143 137 131 127 126 122 114 104 99 93 83 102 106 100 97 100 94 80 78 76 73 71 82
104 87 128 214 175 226 184 154 155 151 188 85 147 167 194 189 151 119 123 131 130 139 138 145 142 143 141 142 137 133 128 121 116 113 110 94 94 94 88 104 105 103 97 75 75 76 70 63 89
122 70 177 192 147 228 166 141 158 95 121 28 147 154 208 135 133 129 131 120 131 144 154 149 150 149 147 137 145 130 130 128 122 116 109 93 98 92 87 120 119 118 110 95 77 71 66 58 52
102 128 213 212 193 195 174 162 166 131 130 54 57 34 125 141 154 161 168 166 178 179 183 165 164 161 154 140 144 138 134 137 139 140 136 125 120 114 97 85 96 105 101 94 72 50 47 63 67
205 184 193 264 237 193 158 155 179 124 240 213 184 154 149 157 165 172 177 179 182 187 183 182 171 166 166 158 148 149 164 148 147 157 153 146 134 119 97 105 91 89 81 60 51 26 27 31 58
210 241 210 292 319 156 166 129 159 174 215 203 178 165 154 167 174 177 180 183 182 173 189 187 177 175 178 152 159 168 176 171 160 178 165 154 149 149 150 154 154 146 138 111 90 51 19 24 58
175 243 207 353 74 143 127 165 181 217 332 102 127 163 172 176 183 185 183 177 175 185 190 190 179 180 178 171 166 163 186 186 185 170 184 165 164 173 172 182 183 185 149 151 176 163 29 12 6
202 206 221 35 52 63 121 159 142 231 108 131 151 179 189 189 186 168 184 182 187 186 190 185 183 188 171 180 183 183 180 196 184 185 188 181 174 175 184 187 202 209 195 190 190 208 224 224 214
125 138 316 218 80 78 109 59 222 136 122 164 183 193 198 205 189 199 196 195 189 193 182 191 180 180 183 188 188 185 185 180 197 204 201 195 176 182 188 187 209 215 198 192 195 235 235 270 291
123 85 162 272 143 324 117 242 248 173 145 187 204 211 215 214 217 214 203 201 196 190 185 192 181 176 181 189 189 196 186 184 199 206 212 202 188 175 182 192 206 208 207 191 186 194 229 243 246
15 156 180 295 281 129 141 246 228 167 172 201 208 222 225 235 251 232 214 202 194 194 188 195 188 185 174 181 185 191 193 194 198 206 210 204 195 181 182 191 209 195 196 205 199 213 191 217 256
154 126 145 200 224 351 180 253 261 157 191 211 214 220 232 237 237 228 224 212 203 197 193 195 196 197 192 183 180 183 192 195 195 201 203 200 199 189 189 197 191 177 184 201 202 214 217 210 242
159 157 161 170 69 157 220 260 249 212 200 230 233 227 230 234 243 226 228 223 210 198 195 200 194 198 194 195 204 207 215 204 201 206 197 194 198 196 192 196 186 177 188 204 193 181 212 259 203
141 164 171 70 71 161 308 264 253 219 232 207 222 225 231 242 249 241 225 213 202 205 202 199 203 197 199 203 207 212 213 219 217 202 202 196 191 190 195 189 187 182 187 200 191 180 192 230 187
178 166 184 161 140 114 6 284 253 248 233 241 236 229 228 227 235 239 215 219 199 205 204 199 202 200 200 202 191 187 229 154 191 195 207 208 196 193 191 197 195 194 195 205 206 193 195 225 197
188 198 156 140 129 190 76 279 276 260 262 228 245 236 232 233 240 242 217 208 208 218 198 201 204 201 201 193 196 199 209 217 219 216 192 202 202 201 195 200 198 200 196 208 205 189 203 177 223
215 132 132 106 98 98 158 217 265 335 275 248 235 234 238 235 214 230 239 238 197 170 186 171 177 188 192 188 200 199 211 221 207 193 193 201 202 210 209 201 199 202 200 214 200 188 199 199 183
145 90 49 60 114 237 199 162 264 194 214 256 247 263 256 245 229 123 87 98 83 73 107 140 172 198 198 188 200 203 213 210 193 197 207 215 213 212 213 211 207 210 209 207 204 205 207 205 210
150 104 24 2 326 222 119 184 245 240 240 227 263 303 330 108 140 138 127 122 107 108 70 46 16 315 307 262 250 221 225 219 213 207 215 218 213 197 210 208 209 210 215 216 194 192 198 200 207
179 149 149 178 214 221 116 236 245 230 254 253 261 6 109 124 128 139 156 144 122 90 82 70 57 355 345 296 262 254 254 233 228 225 222 220 223 219 199 212 218 213 194 188 187 200 203 201 213
190 185 155 105 37 40 218 297 300 282 263 224 187 145 166 171 159 173 153 95 68 55 57 55 81 114 76 330 299 262 255 248 244 232 216 212 229 254 185 193 201 184 176 183 186 196 202 182 181
178 153 118 49 137 256 282 282 238 278 243 173 200 204 204 180 186 166 105 115 150 112 53 46 32 253 182 137 156 267 264 209 181 169 180 188 32 359 195 167 138 125 130 176 167 140 136 161 134
138 178 68 115 151 170 218 263 223 261 274 163 217 203 207 205 189 182 191 201 207 105 124 121 40 22 19 28 17 54 52 59 77 95 98 90 83 75 93 100 91 82 87 77 98 84 88 103 102
206 168 155 180 205 163 136 273 36 319 256 114 102 139 179 198 192 198 203 193 198 202 191 63 37 64 49 60 88 78 64 61 70 72 63 68 69 58 63 72 76 69 65 65 65 85 72 81 80